Location: Newark
(45.1000°N, 8.5833°E)
Time: 23:58:39
(UTC+00:00)

ISS - Pass Details

Date: 24 September 2019
Orbit: 411 x 421 km, 51.6° (Epoch: 14 October)

Event Time Altitude Azimuth Distance (km) Brightness Sun altitude
Rises 17:45:02 0° 239° (WSW) 2,335 1.0 -5.2°
Reaches altitude 10° 17:47:07 10° 239° (WSW) 1,475 -0.1 -5.6°
Maximum altitude 17:50:26 89° 147° (SSE) 416 -3.8 -6.2°
Drops below altitude 10° 17:53:46 10° 61° (ENE) 1,482 -1.5 -6.7°
Enters shadow 17:54:44 - 61° (ENE) 1,882 -0.9 -6.9°
